Weather History for Troy, AL

Change the Weather History Date:

Friday, November 22, 2013

  Actual Average Record
Temperature  
Mean Temperature 64 °F 54 °F  
Max Temperature 72 °F 67 °F 78 °F (2010)
Min Temperature 55 °F 41 °F 21 °F (2000)
Degree Days  
Heating Degree Days 1 12  
Month to date heating degree days 154 192  
Since 1 July heating degree days 199 290  
Growing Degree Days 12 (Base 50)    
Moisture  
Dew Point 57 °F    
Average Humidity 82    
Maximum Humidity 93    
Minimum Humidity 70    
Precipitation  
Precipitation 0.00 in 0.17 in 0.63 in (2007)
Month to date precipitation 0.74 3.16  
Year to date precipitation 49.32 48.30  
Snow  
Snow 0.00 in - - ()
Month to date snowfall 0.0  
Since 1 July snowfall 0.0  
Since 1 September snowfall 0.0  
Snow Depth 0.00 in    
Sea Level Pressure  
Sea Level Pressure 30.24 in    
Wind  
Wind Speed 3 mph (ENE)    
Max Wind Speed 9 mph    
Max Gust Speed 12 mph    
Visibility 8 miles    
Events      
T = Trace of Precipitation, MM = Missing Value Source: NWS Daily Summary

Daily Weather History Graph

Daily Weather History Graph

Search for Another Location

Airport:

Trip Planner

Search our weather history database for the weather conditions in past years. The results will help you decide how hot, cold, wet, or windy it might be!

Date:

Astronomy

Nov. 22, 2013 Rise Set
Actual Time 6:18 AM CST 4:41 PM CST
Civil Twilight 5:52 AM CST 5:07 PM CST
Nautical Twilight 5:22 AM CST 5:37 PM CST
Astronomical Twilight 4:53 AM CST 6:06 PM CST
Moon 9:08 PM CST (11/22) 10:05 AM CST (11/22)
Length of Visible Light 11h 14m
Length of Day
10h 22m
Waning Gibbous, 78% of the Moon is Illuminated
Nov 22
Waning Gibbous
Nov 25
Last Quarter
Dec 2
New
Dec 9
First Quarter
Dec 17
Full

Hourly Weather History & Observations

Time (CST) Temp. Dew Point Humidity Pressure Visibility Wind Dir Wind Speed Gust Speed Precip Events Conditions
12:53 AM 57.0 °F 52.0 °F 83% 30.26 in 10.0 mi NE 3.5 mph - N/A   Clear
1:53 AM 55.9 °F 52.0 °F 87% 30.27 in 10.0 mi Calm Calm - N/A   Clear
2:53 AM 55.9 °F 52.0 °F 87% 30.25 in 10.0 mi NNE 3.5 mph - N/A   Mostly Cloudy
3:18 AM 55.4 °F 53.6 °F 94% 30.26 in 10.0 mi NE 5.8 mph - N/A   Overcast
3:27 AM 55.4 °F 53.6 °F 94% 30.25 in 10.0 mi ENE 5.8 mph - N/A   Overcast
3:45 AM 57.2 °F 53.6 °F 88% 30.26 in 8.0 mi NE 4.6 mph - N/A   Overcast
3:53 AM 57.0 °F 54.0 °F 89% 30.25 in 7.0 mi Variable 4.6 mph - N/A   Overcast
4:23 AM 57.2 °F 53.6 °F 88% 30.25 in 4.0 mi East 5.8 mph - N/A   Overcast
4:53 AM 57.0 °F 54.0 °F 89% 30.25 in 3.0 mi ENE 4.6 mph - N/A   Overcast
5:53 AM 57.9 °F 55.0 °F 90% 30.26 in 4.0 mi East 4.6 mph - N/A   Overcast
6:41 AM 57.2 °F 55.4 °F 94% 30.28 in 2.5 mi ENE 4.6 mph - N/A   Overcast
6:53 AM 57.9 °F 55.9 °F 93% 30.27 in 2.5 mi East 3.5 mph - N/A   Overcast
7:14 AM 59.0 °F 55.4 °F 88% 30.28 in 4.0 mi East 5.8 mph - N/A   Overcast
7:53 AM 59.0 °F 55.9 °F 90% 30.28 in 5.0 mi East 5.8 mph - N/A   Overcast
8:49 AM 60.8 °F 57.2 °F 88% 30.29 in 8.0 mi East 5.8 mph - N/A   Overcast
8:53 AM 61.0 °F 55.9 °F 83% 30.29 in 8.0 mi ENE 5.8 mph - N/A   Overcast
9:41 AM 62.6 °F 57.2 °F 82% 30.29 in 10.0 mi SE 4.6 mph - N/A   Overcast
9:53 AM 63.0 °F 57.0 °F 81% 30.28 in 10.0 mi SE 5.8 mph - N/A   Overcast
10:24 AM 64.4 °F 57.2 °F 77% 30.29 in 10.0 mi Calm Calm - N/A   Overcast
10:53 AM 66.0 °F 57.9 °F 75% 30.27 in 10.0 mi East 5.8 mph - N/A   Overcast
11:21 AM 66.2 °F 57.2 °F 73% 30.26 in 10.0 mi East 4.6 mph - N/A   Overcast
11:53 AM 69.1 °F 59.0 °F 70% 30.24 in 10.0 mi South 5.8 mph - N/A   Scattered Clouds
12:21 PM 69.8 °F 59.0 °F 68% 30.24 in 10.0 mi Calm Calm - N/A   Mostly Cloudy
12:53 PM 70.0 °F 59.0 °F 68% 30.23 in 10.0 mi North 3.5 mph - N/A   Overcast
1:53 PM 70.0 °F 60.1 °F 71% 30.22 in 10.0 mi Calm Calm - N/A   Overcast
2:53 PM 70.0 °F 60.1 °F 71% 30.21 in 10.0 mi Calm Calm - N/A   Overcast
3:53 PM 69.1 °F 60.1 °F 73% 30.20 in 10.0 mi SE 3.5 mph - N/A   Overcast
4:53 PM 66.9 °F 60.1 °F 79% 30.18 in 10.0 mi Calm Calm - N/A   Overcast
5:22 PM 64.4 °F 60.8 °F 88% 30.18 in 10.0 mi SE 3.5 mph - N/A   Scattered Clouds
5:53 PM 64.9 °F 59.0 °F 81% 30.16 in 10.0 mi Calm Calm - N/A   Clear
6:53 PM 62.1 °F 57.9 °F 86% 30.17 in 10.0 mi North 3.5 mph - N/A   Clear
7:36 PM 64.4 °F 60.8 °F 88% 30.19 in 10.0 mi North 5.8 mph - N/A   Mostly Cloudy
7:53 PM 64.0 °F 60.1 °F 87% 30.19 in 10.0 mi North 4.6 mph - N/A   Overcast
8:53 PM 64.0 °F 60.1 °F 87% 30.20 in 10.0 mi Calm Calm - N/A   Overcast
9:53 PM 64.0 °F 60.1 °F 87% 30.20 in 10.0 mi Calm Calm - N/A   Overcast
10:16 PM 64.4 °F 60.8 °F 88% 30.21 in 9.0 mi NNW 4.6 mph - N/A   Overcast
10:53 PM 64.0 °F 60.1 °F 87% 30.19 in 7.0 mi Calm Calm - N/A   Overcast
11:34 PM 64.4 °F 60.8 °F 88% 30.19 in 8.0 mi Calm Calm - N/A   Overcast
11:53 PM 63.0 °F 60.1 °F 90% 30.18 in 8.0 mi Calm Calm - N/A   Overcast